Notices

What's New in latest Release from April 7th, 2021:

- Updated Glossary, including Speed of Maximum Gust, and Total Hourly Precipitation

- Updated national and regional climate services offices contacts and prices information

- Addition of station inventory lists for 1981-2010, 1971-2000, and 1961-1990 Normals.

If you haven't already, please take our survey and provide feedback about our website: https://eccc.sondage-survey.ca/f/LanguageSelection.aspx?s=442ca660-fcf1-47c0-95a9-59707d6fd709

Hourly Data Report for April 22, 2004

TORONTO CITY
ONTARIO

43°40'00.000" N
79°24'00.000" W
112.50 m
6158355
71508
XTO

Download Data

Hourly Data (April 2004)
Hourly Data Report for April 22, 2004
TIME
LST
Temp Definition
°C
Dew Point Definition
°C
Rel Hum Definition
%
Precip. Amount Definition
mm

Wind Dir Definition
10's deg

Wind Spd Definition
km/h
Visibility Definition
km
Stn Press Definition
kPa
Hmdx Definition


Wind Chill Definition


Weather Definition


00:00 12.4 11.5 94   LegendMM LegendMM LegendMM 99.42     LegendNANA
01:00 12.4 11.6 95   LegendMM LegendMM LegendMM 99.47     LegendNANA
02:00 14.1 10.5 79   LegendMM LegendMM LegendMM 99.56     LegendNANA
03:00 12.9 9.1 78   LegendMM LegendMM LegendMM 99.62     LegendNANA
04:00 12.3 8.8 79   LegendMM LegendMM LegendMM 99.74     LegendNANA
05:00 10.6 7.6 82   LegendMM LegendMM LegendMM 99.90     LegendNANA
06:00 8.9 6.7 86   LegendMM LegendMM LegendMM 100.05     LegendNANA
07:00 8.7 4.9 77   LegendMM LegendMM LegendMM 100.23     LegendNANA
08:00 10.0 5.1 72   LegendMM LegendMM LegendMM 100.34     LegendNANA
09:00 10.5 4.9 68   LegendMM LegendMM LegendMM 100.43     LegendNANA
10:00 11.4 4.9 64   LegendMM LegendMM LegendMM 100.53     LegendNANA
11:00 12.2 5.5 64   LegendMM LegendMM LegendMM 100.59     LegendNANA
12:00 13.7 4.7 54   LegendMM LegendMM LegendMM 100.64     LegendNANA
13:00 14.5 5.5 55   LegendMM LegendMM LegendMM 100.65     LegendNANA
14:00 15.0 5.0 51   LegendMM LegendMM LegendMM 100.66     LegendNANA
15:00 13.5 4.6 55   LegendMM LegendMM LegendMM 100.67     LegendNANA
16:00 12.6 4.5 58   LegendMM LegendMM LegendMM 100.67     LegendNANA
17:00 11.6 4.0 60   LegendMM LegendMM LegendMM 100.72     LegendNANA
18:00 12.1 5.2 63   LegendMM LegendMM LegendMM 100.73     LegendNANA
19:00 11.5 4.1 60   LegendMM LegendMM LegendMM 100.72     LegendNANA
20:00 12.3 4.0 57   LegendMM LegendMM LegendMM 100.76     LegendNANA
21:00 11.2 3.5 59   LegendMM LegendMM LegendMM 100.83     LegendNANA
22:00 10.1 2.3 58   LegendMM LegendMM LegendMM 100.80     LegendNANA
23:00 9.3 2.8 64   LegendMM LegendMM LegendMM 100.75     LegendNANA

Notes on Data Quality.

Legend

  • E = Estimated
  • M = Missing
  • NA = Not Available*
  • [empty] = Indicates an unobserved value
Date modified: